GW1938 Weather Reports


Display with metric or nautical units.
time (UTC)temp
F
wind
direction
speed
MPH
gust
MPH
rain 1hr
in
rain 24hr
in
rain mn
in
humidity
%
barometer
mb
20260831030616 71 102 5.0 7.0 0.00 0.01 0.01 54 1028.0
20260831030114 71 109 5.0 7.0 0.00 0.01 0.01 56 1028.0
20260831025613 72 111 6.0 7.0 0.00 0.01 0.01 57 1028.1
20260831025110 72 113 5.0 7.0 0.00 0.01 0.01 59 1028.2
20260831024608 72 116 5.0 7.0 0.00 0.01 0.01 53 1028.3
20260831024105 71 109 6.0 7.0 0.00 0.01 0.01 58 1028.3
20260831023604 72 106 6.0 8.0 0.00 0.01 0.01 56 1028.4
20260831023103 71 113 5.0 7.0 0.00 0.01 0.01 57 1028.5
20260831022602 71 110 6.0 7.0 0.00 0.01 0.01 58 1028.5
20260831022101 70 110 6.0 7.0 0.00 0.01 0.01 62 1028.7
20260831021600 69 101 6.0 8.0 0.00 0.01 0.01 60 1028.7
20260831020555 68 98 5.0 7.0 0.00 0.01 0.01 63 1028.9
20260831020054 67 82 6.0 7.0 0.00 0.01 0.01 65 1028.9
20260831015553 67 73 4.0 7.0 0.00 0.01 0.01 64 1029.0
20260831014549 68 28 2.0 5.0 0.01 0.01 0.01 59 1029.1
20260831014048 68 15 3.0 5.0 0.01 0.01 0.01 63 1029.2
20260831013546 68 12 3.0 4.0 0.01 0.01 0.01 65 1029.3
20260831012540 67 339 3.0 4.0 0.01 0.01 0.01 63 1029.3
20260831012038 67 329 3.0 4.0 0.01 0.01 0.01 66 1029.3
20260831011537 66 326 3.0 4.0 0.01 0.01 0.01 72 1029.3
20260831011036 65 319 4.0 6.0 0.01 0.01 0.01 69 1029.4
20260831010032 65 317 2.0 4.0 0.01 0.01 0.01 69 1029.5
20260831005531 65 339 2.0 4.0 0.01 0.01 0.01 70 1029.5
20260831005029 64 316 3.0 5.0 0.01 0.01 0.01 71 1029.5
20260831004528 63 276 4.0 8.0 0.00 0.00 0.00 72 1029.5
20260831004027 62 264 5.0 7.0 0.00 0.00 0.00 72 1029.6
20260831003526 62 258 5.0 8.0 0.00 0.00 0.00 74 1029.6
20260831003025 62 264 5.0 8.0 0.00 0.00 0.00 74 1029.6
20260831002021 62 281 4.0 8.0 0.00 0.00 0.00 72 1029.6
20260831001520 62 294 3.0 7.0 0.00 0.00 0.00 73 1029.6
20260831001018 61 282 4.0 7.0 0.00 0.00 0.00 73 1029.6
20260831000517 62 293 4.0 7.0 0.00 0.00 0.00 75 1029.7
20260830235513 62 315 5.0 11.0 0.00 0.00 0.00 75 1029.7
20260830235011 62 313 4.0 9.0 0.00 0.00 0.00 75 1029.7
20260830234006 60 298 3.0 7.0 0.00 0.00 0.00 76 1029.6
20260830233505 61 313 3.0 8.0 0.00 0.00 0.00 76 1029.6
20260830233004 60 306 3.0 7.0 0.00 0.00 0.00 79 1029.6
20260830232504 60 293 3.0 7.0 0.00 0.00 0.00 79 1029.6
20260830232003 59 288 4.0 9.0 0.00 0.00 0.00 78 1029.6
20260830231501 59 266 5.0 9.0 0.00 0.00 0.00 79 1029.6
20260830231000 59 267 6.0 9.0 0.00 0.00 0.00 80 1029.6
20260830230458 59 265 6.0 10.0 0.00 0.00 0.00 81 1029.5
20260830225937 58 270 5.0 9.0 0.00 0.00 0.00 81 1029.5
20260830225436 58 266 5.0 10.0 0.00 0.00 0.00 79 1029.5
20260830224431 58 267 6.0 10.0 0.00 0.00 0.00 84 1029.4
20260830223928 58 268 5.0 9.0 0.00 0.00 0.00 86 1029.5
20260830223427 58 266 6.0 9.0 0.00 0.00 0.00 87 1029.4
20260830222421 57 279 5.0 10.0 0.00 0.00 0.00 87 1029.4
20260830221920 57 274 6.0 9.0 0.00 0.00 0.00 87 1029.4
20260830220914 57 284 4.0 9.0 0.00 0.00 0.00 88 1029.4
20260830220413 57 280 5.0 7.0 0.00 0.00 0.00 89 1029.4
20260830215911 57 294 5.0 7.0 0.00 0.00 0.00 90 1029.4
20260830215410 56 286 5.0 8.0 0.00 0.00 0.00 90 1029.3
20260830214404 56 286 5.0 7.0 0.00 0.00 0.00 91 1029.3
20260830212856 56 301 4.0 8.0 0.00 0.00 0.00 93 1029.0
20260830212355 56 308 4.0 7.0 0.00 0.00 0.00 93 1029.0
20260830211853 55 292 4.0 7.0 0.00 0.00 0.00 93 1028.9
20260830211351 55 292 4.0 7.0 0.00 0.00 0.00 94 1028.8
20260830210850 55 298 4.0 8.0 0.00 0.00 0.00 95 1028.8
20260830210349 55 308 5.0 7.0 0.00 0.00 0.00 96 1028.8
20260830205848 55 300 4.0 7.0 0.00 0.00 0.00 98 1028.7
20260830205347 55 287 4.0 8.0 0.00 0.00 0.00 98 1028.7
20260830204846 54 287 5.0 8.0 0.00 0.00 0.00 98 1028.6
20260830204345 54 298 4.0 7.0 0.00 0.00 0.00 99 1028.5
20260830203340 53 305 4.0 6.0 0.00 0.00 0.00 99 1028.4
20260830201833 53 313 5.0 7.0 0.00 0.00 0.00 100 1028.3
20260830201332 53 310 4.0 7.0 0.00 0.00 0.00 100 1028.2
20260830200831 53 317 4.0 7.0 0.00 0.00 0.00 100 1028.2
20260830200329 53 322 4.0 8.0 0.00 0.00 0.00 100 1028.2
20260830195828 53 320 5.0 8.0 0.00 0.00 0.00 100 1028.1
20260830195326 54 320 5.0 8.0 0.00 0.00 0.00 100 1028.0
20260830194322 54 313 5.0 8.0 0.00 0.00 0.00 100 1027.9
20260830193821 55 279 6.0 8.0 0.00 0.00 0.00 100 1027.9
20260830193320 54 273 6.0 9.0 0.00 0.00 0.00 100 1027.9
20260830192819 54 261 7.0 9.0 0.00 0.00 0.00 100 1027.9
20260830192318 54 259 7.0 10.0 0.00 0.00 0.00 100 1027.8
20260830191314 54 259 7.0 9.0 0.00 0.00 0.00 99 1027.8
20260830190813 54 259 7.0 9.0 0.00 0.00 0.00 99 1027.8
20260830190302 54 265 6.0 9.0 0.00 0.00 0.00 99 1027.8
20260830185801 54 265 7.0 9.0 0.00 0.00 0.00 98 1027.8
20260830185300 54 266 7.0 9.0 0.00 0.00 0.00 98 1027.8
20260830184256 54 261 7.0 9.0 0.00 0.00 0.00 96 1027.9
20260830183755 54 265 7.0 10.0 0.00 0.00 0.00 96 1027.8
20260830182751 54 267 7.0 10.0 0.00 0.00 0.00 96 1027.8
20260830182250 54 266 7.0 10.0 0.00 0.00 0.00 96 1027.8
20260830181747 54 256 7.0 10.0 0.00 0.00 0.00 96 1027.8
20260830181246 54 253 7.0 10.0 0.00 0.00 0.00 97 1027.8
20260830180745 54 254 7.0 10.0 0.00 0.00 0.00 97 1027.8
20260830180244 55 253 7.0 10.0 0.00 0.00 0.00 97 1027.8
20260830175239 55 257 8.0 10.0 0.00 0.00 0.00 96 1027.7
20260830174235 55 258 8.0 11.0 0.00 0.00 0.00 95 1027.8
20260830173231 55 262 7.0 8.0 0.00 0.00 0.00 95 1027.7
20260830172730 55 264 6.0 8.0 0.00 0.00 0.00 95 1027.7
20260830172229 55 262 6.0 8.0 0.00 0.00 0.00 95 1027.7
20260830171727 55 267 7.0 8.0 0.00 0.00 0.00 96 1027.7
20260830171226 55 258 7.0 8.0 0.00 0.00 0.00 95 1027.6
20260830170725 55 258 7.0 8.0 0.00 0.00 0.00 95 1027.6
20260830170224 56 259 6.0 7.0 0.00 0.00 0.00 94 1027.7
20260830165723 56 262 6.0 8.0 0.00 0.00 0.00 94 1027.7
20260830164719 56 275 5.0 6.0 0.00 0.00 0.00 92 1027.7
20260830164218 56 271 5.0 6.0 0.00 0.00 0.00 91 1027.6
20260830163717 56 276 5.0 6.0 0.00 0.00 0.00 90 1027.7
20260830163216 56 283 5.0 5.0 0.00 0.00 0.00 89 1027.8
20260830162714 56 278 5.0 5.0 0.00 0.00 0.00 87 1027.8
20260830162212 56 265 5.0 6.0 0.00 0.00 0.00 87 1027.8
20260830161711 56 259 5.0 5.0 0.00 0.00 0.00 87 1027.9
20260830160203 56 253 6.0 7.0 0.00 0.00 0.00 85 1028.0
20260830155702 56 251 6.0 7.0 0.00 0.00 0.00 85 1028.0
20260830154657 55 239 5.0 6.0 0.00 0.00 0.00 89 1028.0
20260830154156 55 230 5.0 5.0 0.00 0.00 0.00 91 1028.0
20260830152646 55 220 4.0 5.0 0.00 0.00 0.00 95 1028.1
20260830152145 55 220 4.0 5.0 0.00 0.00 0.00 95 1028.1
20260830151644 56 228 3.0 4.0 0.00 0.00 0.00 95 1028.2
20260830151143 56 233 4.0 5.0 0.00 0.00 0.00 95 1028.2
20260830150137 56 234 3.0 4.0 0.00 0.00 0.00 93 1028.1
20260830145636 57 257 3.0 4.0 0.00 0.00 0.00 93 1028.2
20260830145134 57 276 3.0 4.0 0.00 0.00 0.00 93 1028.1
20260830144130 57 312 4.0 5.0 0.00 0.00 0.00 93 1028.2
20260830143629 57 297 4.0 6.0 0.00 0.00 0.00 93 1028.2
20260830143128 57 302 4.0 5.0 0.00 0.00 0.00 92 1028.2
20260830142627 57 314 3.0 4.0 0.00 0.00 0.00 91 1028.2
20260830142125 57 312 3.0 4.0 0.00 0.00 0.00 90 1028.2
20260830141624 57 288 3.0 4.0 0.00 0.00 0.00 90 1028.2
20260830141122 57 295 4.0 5.0 0.00 0.00 0.00 88 1028.2
20260830140621 57 291 4.0 5.0 0.00 0.00 0.00 87 1028.3
20260830135614 57 300 4.0 5.0 0.00 0.00 0.00 89 1028.2
20260830135110 57 312 4.0 5.0 0.00 0.00 0.00 90 1028.2
20260830134600 57 324 4.0 5.0 0.00 0.00 0.00 91 1028.2
20260830134058 57 336 4.0 5.0 0.00 0.00 0.00 90 1028.2
20260830133053 58 333 4.0 6.0 0.00 0.00 0.00 91 1028.3
20260830132039 57 1 3.0 4.0 0.00 0.00 0.00 86 1028.3
20260830131530 58 355 2.0 3.0 0.00 0.00 0.00 88 1028.4
20260830131020 58 354 3.0 4.0 0.00 0.00 0.00 85 1028.4
20260830130510 58 24 3.0 4.0 0.00 0.00 0.00 84 1028.3
20260830130003 58 54 2.0 2.0 0.00 0.00 0.00 85 1028.5
20260830124940 58 98 2.0 2.0 0.00 0.00 0.00 86 1028.4
20260830124438 58 104 2.0 2.0 0.00 0.00 0.00 87 1028.5
20260830123937 58 62 2.0 3.0 0.00 0.00 0.00 85 1028.4
20260830123436 58 71 2.0 3.0 0.00 0.00 0.00 87 1028.4
20260830122934 57 15 4.0 5.0 0.00 0.00 0.00 89 1028.3
20260830121930 56 356 2.0 3.0 0.00 0.00 0.00 92 1028.3
20260830121415 57 5 2.0 3.0 0.00 0.00 0.00 92 1028.1
20260830120909 57 7 2.0 4.0 0.00 0.00 0.00 93 1028.2
20260830120358 56 353 3.0 4.0 0.00 0.00 0.00 92 1028.1
20260830115801 57 338 3.0 4.0 0.00 0.00 0.00 91 1028.2
20260830115257 58 337 3.0 4.0 0.00 0.00 0.00 91 1028.2
20260830114755 58 1 2.0 2.0 0.00 0.00 0.00 92 1028.2
20260830114253 57 349 2.0 2.0 0.00 0.00 0.00 91 1028.2
20260830113750 57 3 2.0 3.0 0.00 0.00 0.00 92 1028.2
20260830113247 57 10 2.0 3.0 0.00 0.00 0.00 91 1028.3
20260830112745 57 24 3.0 5.0 0.00 0.00 0.00 91 1028.2
20260830111235 56 21 3.0 5.0 0.00 0.00 0.00 92 1028.2
20260830110733 57 10 3.0 4.0 0.00 0.00 0.00 92 1028.2
20260830105729 57 6 3.0 4.0 0.00 0.00 0.00 91 1028.3
20260830105227 58 6 3.0 4.0 0.00 0.00 0.00 90 1028.3
20260830104726 58 15 3.0 4.0 0.00 0.00 0.00 91 1028.3
20260830103720 58 2 2.0 4.0 0.00 0.00 0.00 90 1028.3
20260830103218 58 354 2.0 3.0 0.00 0.00 0.00 89 1028.3
20260830102713 58 351 2.0 3.0 0.00 0.00 0.00 88 1028.3
20260830102209 59 348 3.0 3.0 0.00 0.00 0.00 87 1028.2
20260830101707 59 349 3.0 4.0 0.00 0.00 0.00 85 1028.2
20260830101206 60 341 3.0 4.0 0.00 0.00 0.00 83 1028.3
20260830100705 60 344 3.0 4.0 0.00 0.00 0.00 81 1028.2
20260830095658 60 57 4.0 5.0 0.00 0.00 0.00 77 1028.1
20260830095154 60 66 5.0 5.0 0.00 0.00 0.00 77 1028.1
20260830094651 60 72 4.0 5.0 0.00 0.00 0.00 77 1028.1
20260830094150 60 71 4.0 4.0 0.00 0.00 0.00 77 1028.0
20260830093646 60 73 4.0 4.0 0.00 0.00 0.00 76 1027.9
20260830093143 60 86 4.0 4.0 0.00 0.00 0.00 76 1027.9
20260830092137 61 85 4.0 4.0 0.00 0.00 0.00 75 1027.8
20260830091633 61 82 4.0 5.0 0.00 0.00 0.00 74 1027.8
20260830091132 61 79 4.0 6.0 0.00 0.00 0.00 74 1027.8
20260830090631 61 79 4.0 5.0 0.00 0.00 0.00 73 1027.7
20260830090130 61 85 4.0 5.0 0.00 0.00 0.00 72 1027.7
20260830085125 61 91 4.0 5.0 0.00 0.00 0.00 73 1027.7
20260830084118 59 94 4.0 5.0 0.00 0.00 0.00 78 1027.6
20260830083617 58 109 5.0 6.0 0.00 0.00 0.00 78 1027.6
20260830083114 58 115 4.0 5.0 0.00 0.00 0.00 77 1027.6
20260830082108 59 117 5.0 7.0 0.00 0.00 0.00 77 1027.5
20260830081606 59 114 5.0 7.0 0.00 0.00 0.00 76 1027.5
20260830081103 59 120 5.0 6.0 0.00 0.00 0.00 75 1027.5
20260830080600 60 119 5.0 6.0 0.00 0.00 0.00 73 1027.4
20260830075554 60 128 5.0 7.0 0.00 0.00 0.00 71 1027.4
20260830075052 60 127 5.0 7.0 0.00 0.00 0.00 70 1027.3
20260830074551 61 127 5.0 7.0 0.00 0.00 0.00 70 1027.2
20260830073545 61 121 4.0 5.0 0.00 0.00 0.00 67 1027.1
20260830073043 61 120 4.0 5.0 0.00 0.00 0.00 67 1027.1
20260830072540 62 117 5.0 6.0 0.00 0.00 0.00 66 1027.0
20260830072037 62 119 4.0 5.0 0.00 0.00 0.00 63 1026.9
20260830071535 63 122 4.0 6.0 0.00 0.00 0.00 60 1026.9
20260830071034 65 120 5.0 6.0 0.00 0.00 0.00 59 1027.0
20260830070532 65 113 5.0 6.0 0.00 0.00 0.00 58 1026.9
20260830070030 65 118 5.0 8.0 0.00 0.00 0.00 59 1027.0
20260830065527 65 123 4.0 6.0 0.00 0.00 0.00 56 1027.0
20260830065026 67 123 5.0 7.0 0.00 0.00 0.00 55 1027.0
20260830064525 67 118 5.0 6.0 0.00 0.00 0.00 56 1027.0
20260830064024 67 116 5.0 7.0 0.00 0.00 0.00 56 1026.9
20260830063523 67 121 5.0 7.0 0.00 0.00 0.00 55 1026.9
20260830062519 68 123 4.0 6.0 0.00 0.00 0.00 53 1026.9
20260830062018 68 122 5.0 6.0 0.00 0.00 0.00 54 1026.8
20260830061013 69 118 5.0 7.0 0.00 0.00 0.00 54 1026.8
20260830060512 69 122 5.0 9.0 0.00 0.00 0.00 53 1026.8
20260830055506 69 122 6.0 9.0 0.00 0.00 0.00 54 1026.8
20260830055004 69 121 6.0 10.0 0.00 0.00 0.00 53 1026.9
20260830053959 70 116 6.0 8.0 0.00 0.00 0.00 54 1026.8
20260830053457 69 117 6.0 9.0 0.00 0.00 0.00 52 1026.8
20260830052956 70 119 6.0 8.0 0.00 0.00 0.00 50 1026.9
20260830051951 67 118 5.0 8.0 0.00 0.00 0.00 53 1027.0
20260830051450 67 118 4.0 8.0 0.00 0.00 0.00 53 1027.1
20260830050948 66 117 4.0 9.0 0.00 0.00 0.00 54 1027.1
20260830050445 66 115 5.0 9.0 0.00 0.00 0.00 54 1027.2
20260830045941 67 113 4.0 8.0 0.00 0.00 0.00 54 1027.2
20260830045439 69 117 4.0 8.0 0.00 0.00 0.00 52 1027.2
20260830044433 70 124 6.0 9.0 0.00 0.00 0.00 54 1027.1
20260830043931 71 117 5.0 8.0 0.00 0.00 0.00 52 1027.1
20260830042925 70 118 6.0 8.0 0.00 0.00 0.00 53 1027.1
20260830042424 68 117 4.0 8.0 0.00 0.00 0.00 57 1027.1
20260830041923 69 118 4.0 8.0 0.00 0.00 0.00 54 1027.2
20260830040735 71 126 6.0 10.0 0.00 0.00 0.00 53 1027.3
20260830040233 71 121 5.0 7.0 0.00 0.00 0.00 51 1027.3
20260830035730 69 112 5.0 7.0 0.00 0.00 0.00 55 1027.2
20260830035228 0 111 5.0 6.0 0.00 0.00 0.00
20260830034725 69 101 5.0 7.0 0.00 0.00 0.00 52 1027.2
20260830034222 68 81 3.0 5.0 0.00 0.00 0.00 56 1027.2
20260830033720 67 65 3.0 5.0 0.00 0.00 0.00 52 1027.2
20260830033219 69 52 3.0 5.0 0.00 0.00 0.00 53 1027.2
20260830031709 68 324 4.0 5.0 0.00 0.00 0.00 58 1027.3
20260830031206 68 318 5.0 8.0 0.00 0.00 0.00 54 1027.4